Date String (YYYY-MM-DD hh:mm:ss) UTC,Instrument flags,absolute air pressure of the measurement (hPa),sample flow rate (lpm),inlet stack bypass flow (lpm),air temperature of the measurement (°C),ambient temperature measured by the external sensor (°C),aerosol sample conditioner tube jacket temperature (°C),OPC LED temperature (°C),internal box temperature (°C),relative humidity of the measurement (%),span deviation,mass concentration of particles derived from Lorenz-Mie calculation of OPC scattering (μg/m³),mass concentration of particles derived from Lorenz-Mie calculation of OPC scattering (μg/m³),mass concentration of particles derived from Lorenz-Mie calculation of OPC scattering (μg/m³)
DateTimeUTC,F1_M11,P_M11,Q1_M11,Q2_M11,T1_M11,T2_M11,T3_M11,T4_M11,T5_M11,U1_M11,ZSPAN_M11,X0_M11,X2_M11,X1_M11
2024-05-11 02:00:00,SystemResetWarning,0833.2,5.01,000.00,025.1,024.6,000.0,033.2,026.9,020.9,0000.0,0009.77,0004.58,0004.16
2024-05-11 02:01:00,SystemResetWarning,0833.2,5.01,000.00,025.1,024.7,000.0,033.2,027.0,020.8,0000.0,0010.04,0004.65,0004.21
2024-05-11 02:02:00,SystemResetWarning,0833.2,5.00,000.00,025.2,024.7,000.0,033.3,027.1,020.8,0000.0,0010.42,0004.75,0004.28
2024-05-11 02:03:00,SystemResetWarning,0833.2,4.99,000.00,025.2,024.8,000.0,033.3,027.1,020.9,0000.0,0010.37,0004.74,0004.33
2024-05-11 02:04:00,SystemResetWarning,0833.2,4.99,000.00,025.3,024.8,000.0,033.3,027.1,020.7,0000.0,0010.51,0004.76,0004.34
2024-05-11 02:05:00,SystemResetWarning,0833.2,4.99,000.00,025.3,024.9,000.0,033.4,027.2,020.6,0000.0,0010.20,0004.75,0004.34
2024-05-11 02:06:00,SystemResetWarning,0833.2,5.01,000.00,025.3,024.9,000.0,033.4,027.2,020.6,0000.0,0010.59,0004.74,0004.30
2024-05-11 02:07:00,SystemResetWarning,0833.2,5.00,000.00,025.4,025.0,000.0,033.4,027.2,020.7,0000.0,0010.36,0004.68,0004.25
2024-05-11 02:08:00,SystemResetWarning,0833.2,5.00,000.00,025.4,025.0,000.0,033.4,027.3,020.8,0000.0,0011.25,0004.68,0004.21
2024-05-11 02:09:00,SystemResetWarning,0833.2,5.00,000.00,025.5,025.0,000.0,033.5,027.3,020.7,0000.0,0011.06,0004.64,0004.18
2024-05-11 02:10:00,SystemResetWarning,0833.2,5.00,000.00,025.5,025.1,000.0,033.5,027.4,020.6,0000.0,0010.18,0004.58,0004.13
2024-05-11 02:11:00,SystemResetWarning,0833.2,5.00,000.00,025.5,025.1,000.0,033.6,027.4,020.7,0000.0,0010.06,0004.53,0004.10
2024-05-11 02:12:00,SystemResetWarning,0833.2,5.00,000.00,025.5,025.1,000.0,033.6,027.4,020.9,0000.0,0009.97,0004.45,0004.04
2024-05-11 02:13:00,SystemResetWarning,0833.2,4.99,000.00,025.6,025.0,000.0,033.7,027.3,020.8,0000.0,0009.86,0004.37,0003.98
2024-05-11 02:14:00,SystemResetWarning,0833.2,4.99,000.00,025.3,022.8,000.0,033.7,026.2,021.0,0000.0,0009.76,0004.31,0003.93
2024-05-11 02:15:00,SystemResetWarning,0833.1,5.01,000.00,024.8,021.6,000.0,033.7,025.5,021.3,0000.0,0009.61,0004.28,0003.92
2024-05-11 02:16:00,SystemResetWarning,0833.2,5.01,000.00,024.6,021.8,000.0,033.6,025.5,021.7,0000.0,0009.51,0004.30,0003.94
2024-05-11 02:17:00,SystemResetWarning,0833.2,4.99,000.00,024.6,022.2,000.0,033.4,025.7,021.6,0000.0,0009.27,0004.32,0003.94
2024-05-11 02:18:00,SystemResetWarning,0833.2,5.01,000.00,024.6,022.6,000.0,033.3,026.0,021.6,0000.0,0009.19,0004.36,0003.97
2024-05-11 02:19:00,SystemResetWarning,0833.2,5.01,000.00,024.6,022.9,000.0,033.2,026.1,021.9,0000.0,0008.65,0004.40,0004.00
2024-05-11 02:20:00,SystemResetWarning,0833.2,4.99,000.00,024.7,023.2,000.0,033.2,026.3,021.8,0000.0,0008.26,0004.39,0004.01
2024-05-11 02:21:00,SystemResetWarning,0833.2,5.00,000.00,024.7,023.5,000.0,033.1,026.4,021.6,0000.0,0008.38,0004.46,0004.04
2024-05-11 02:22:00,SystemResetWarning,0833.2,5.00,000.00,024.7,023.7,000.0,033.1,026.5,021.5,0000.0,0008.39,0004.56,0004.10
2024-05-11 02:23:00,SystemResetWarning,0833.2,5.00,000.00,024.8,023.9,000.0,033.1,026.6,021.4,0000.0,0007.95,0004.63,0004.15
2024-05-11 02:24:00,SystemResetWarning,0833.2,5.00,000.00,024.8,024.1,000.0,033.1,026.6,021.6,0000.0,0008.12,0004.68,0004.21
2024-05-11 02:25:00,SystemResetWarning,0833.2,5.00,000.00,024.9,024.2,000.0,033.1,026.7,021.8,0000.0,0008.09,0004.73,0004.25
2024-05-11 02:26:00,SystemResetWarning,0833.2,5.01,000.00,024.9,024.3,000.0,033.1,026.7,021.8,0000.0,0008.17,0004.74,0004.24
2024-05-11 02:27:00,SystemResetWarning,0833.2,5.00,000.00,025.0,024.4,000.0,033.1,026.8,021.6,0000.0,0008.13,0004.69,0004.19
2024-05-11 02:28:00,SystemResetWarning,0833.2,5.00,000.00,025.0,024.5,000.0,033.2,026.9,021.7,0000.0,0007.98,0004.63,0004.16
2024-05-11 02:29:00,SystemResetWarning,0833.2,5.00,000.00,025.1,024.6,000.0,033.2,026.9,021.7,0000.0,0007.80,0004.54,0004.10
2024-05-11 02:30:00,SystemResetWarning,0833.2,4.99,000.00,025.1,024.6,000.0,033.2,027.0,021.7,0000.0,0007.65,0004.46,0004.05
2024-05-11 02:31:00,SystemResetWarning,0833.2,5.01,000.00,025.2,024.7,000.0,033.3,027.0,021.8,0000.0,0007.58,0004.42,0004.02
2024-05-11 02:32:00,SystemResetWarning,0833.2,5.01,000.00,025.2,024.8,000.0,033.3,027.0,021.8,0000.0,0007.48,0004.36,0003.98
2024-05-11 02:33:00,SystemResetWarning,0833.2,5.00,000.00,025.2,024.8,000.0,033.3,027.1,021.9,0000.0,0007.28,0004.25,0003.90
2024-05-11 02:34:00,SystemResetWarning,0833.2,4.99,000.00,025.3,024.8,000.0,033.3,027.1,021.8,0000.0,0007.31,0004.18,0003.83
2024-05-11 02:35:00,SystemResetWarning,0833.2,4.99,000.00,025.3,024.9,000.0,033.4,027.2,021.8,0000.0,0007.06,0004.12,0003.76
2024-05-11 02:36:00,SystemResetWarning,0833.2,5.01,000.00,025.4,024.9,000.0,033.4,027.2,021.8,0000.0,0007.39,0004.06,0003.71
2024-05-11 02:37:00,SystemResetWarning,0833.2,5.00,000.00,025.4,025.0,000.0,033.4,027.2,021.8,0000.0,0007.48,0004.04,0003.70
2024-05-11 02:38:00,SystemResetWarning,0833.2,4.99,000.00,025.4,025.0,000.0,033.5,027.3,021.8,0000.0,0007.80,0004.00,0003.68
2024-05-11 02:39:00,SystemResetWarning,0833.2,4.99,000.00,025.4,025.0,000.0,033.5,027.3,021.7,0000.0,0008.19,0004.00,0003.65
2024-05-11 02:40:00,SystemResetWarning,0833.3,5.00,000.00,025.5,025.1,000.0,033.5,027.3,021.7,0000.0,0008.27,0004.01,0003.63
2024-05-11 02:41:00,SystemResetWarning,0833.3,5.00,000.00,025.5,025.1,000.0,033.6,027.4,021.7,0000.0,0008.41,0004.00,0003.62
2024-05-11 02:42:00,SystemResetWarning,0833.3,5.00,000.00,025.5,025.1,000.0,033.6,027.4,021.6,0000.0,0008.91,0004.01,0003.61
2024-05-11 02:43:00,SystemResetWarning,0833.2,5.01,000.00,025.6,025.1,000.0,033.6,027.4,021.6,0000.0,0009.33,0004.01,0003.61
2024-05-11 02:44:00,SystemResetWarning,0833.2,5.00,000.00,025.6,025.2,000.0,033.6,027.4,021.6,0000.0,0009.83,0004.02,0003.61
2024-05-11 02:45:00,SystemResetWarning,0833.2,5.01,000.00,025.6,025.2,000.0,033.7,027.5,021.6,0000.0,0009.78,0004.03,0003.61
2024-05-11 02:46:00,SystemResetWarning,0833.3,5.00,000.00,025.6,025.2,000.0,033.7,027.5,021.6,0000.0,0009.61,0003.98,0003.60
2024-05-11 02:47:00,SystemResetWarning,0833.3,5.00,000.00,025.7,025.2,000.0,033.7,027.5,021.5,0000.0,0009.27,0003.99,0003.59
2024-05-11 02:48:00,SystemResetWarning,0833.2,5.00,000.00,025.7,025.2,000.0,033.8,027.5,021.5,0000.0,0009.16,0004.01,0003.59
2024-05-11 02:49:00,SystemResetWarning,0833.2,4.99,000.00,025.7,025.2,000.0,033.8,027.5,021.5,0000.0,0008.82,0004.02,0003.59
2024-05-11 02:50:00,SystemResetWarning,0833.3,4.99,000.00,025.7,024.8,000.0,033.8,027.2,021.5,0000.0,0008.32,0003.97,0003.59
2024-05-11 02:51:00,SystemResetWarning,0833.2,5.00,000.00,025.3,022.2,000.0,033.9,026.0,021.9,0000.0,0008.23,0003.95,0003.59
2024-05-11 02:52:00,SystemResetWarning,0833.2,5.01,000.00,024.9,021.3,000.0,033.8,025.4,022.6,0000.0,0008.08,0003.93,0003.58
2024-05-11 02:53:00,SystemResetWarning,0833.2,5.01,000.00,024.7,021.6,000.0,033.7,025.5,022.9,0000.0,0007.63,0003.91,0003.58
2024-05-11 02:54:00,SystemResetWarning,0833.3,4.99,000.00,024.6,022.0,000.0,033.5,025.7,023.0,0000.0,0007.12,0003.88,0003.57
2024-05-11 02:55:00,SystemResetWarning,0833.2,5.00,000.00,024.6,022.5,000.0,033.4,026.0,023.0,0000.0,0007.13,0003.84,0003.56
2024-05-11 02:56:00,SystemResetWarning,0833.3,5.00,000.00,024.6,022.8,000.0,033.3,026.1,022.9,0000.0,0007.31,0003.85,0003.57
2024-05-11 02:57:00,SystemResetWarning,0833.2,5.01,000.00,024.7,023.1,000.0,033.2,026.2,022.9,0000.0,0007.30,0003.86,0003.60
2024-05-11 02:58:00,SystemResetWarning,0833.3,5.00,000.00,024.7,023.4,000.0,033.2,026.3,022.9,0000.0,0007.37,0003.87,0003.61
2024-05-11 02:59:00,SystemResetWarning,0833.3,5.00,000.00,024.7,023.6,000.0,033.2,026.4,022.8,0000.0,0007.30,0003.86,0003.63
